Weather History for Baltimore Martin, MD

Change the Weather History Date:

Tuesday, May 6, 2014

  Actual Average Record
Temperature  
Mean Temperature 62 °F -  
Max Temperature 71 °F 68 °F 86 °F (2000)
Min Temperature 51 °F 52 °F 44 °F (2011)
Degree Days  
Heating Degree Days 3    
Growing Degree Days 12 (Base 50)    
Moisture  
Dew Point 47 °F    
Average Humidity 63    
Maximum Humidity 82    
Minimum Humidity 46    
Precipitation  
Precipitation 0.00 in - - ()
Sea Level Pressure  
Sea Level Pressure 29.97 in    
Wind  
Wind Speed 5 mph (South)    
Max Wind Speed 12 mph    
Max Gust Speed -    
Visibility 10 miles    
Events Thunderstorm    
Averages and records for this station are not official NWS values.
T = Trace of Precipitation, MM = Missing Value Source: NWS Daily Summary

Daily Weather History Graph

Daily Weather History Graph

Search for Another Location

Airport:

Trip Planner

Search our weather history database for the weather conditions in past years. The results will help you decide how hot, cold, wet, or windy it might be!

Date:

Astronomy

May. 06, 2014 Rise Set
Actual Time 6:01 AM EDT 8:03 PM EDT
Civil Twilight 5:31 AM EDT 8:33 PM EDT
Nautical Twilight 4:55 AM EDT 9:09 PM EDT
Astronomical Twilight 4:17 AM EDT 9:48 PM EDT
Moon 12:14 PM EDT (5/6) 1:22 AM EDT (5/6)
Length of Visible Light 15h 01m
Length of Day
14h 02m
Waxing Crescent, 46% of the Moon is Illuminated
May 6
Waxing Crescent
May 6
First Quarter
May 14
Full
May 21
Last Quarter
May 28
New

Hourly Weather History & Observations

Time (EDT) Temp. Dew Point Humidity Pressure Visibility Wind Dir Wind Speed Gust Speed Precip Events Conditions
12:09 AM 55.4 °F 41.0 °F 58% 29.93 in 10.0 mi WSW 6.9 mph - N/A   Clear
12:27 AM 55.4 °F 42.8 °F 63% 29.93 in 10.0 mi WSW 5.8 mph - N/A   Clear
12:48 AM 55.4 °F 42.8 °F 63% 29.93 in 10.0 mi WSW 4.6 mph - N/A   Clear
1:09 AM 55.4 °F 42.8 °F 63% 29.94 in 10.0 mi SW 5.8 mph - N/A   Scattered Clouds
1:30 AM 55.4 °F 42.8 °F 63% 29.94 in 10.0 mi SW 6.9 mph - N/A   Scattered Clouds
1:48 AM 55.4 °F 42.8 °F 63% 29.93 in 10.0 mi WSW 5.8 mph - N/A Thunderstorm Clear
2:09 AM 53.6 °F 42.8 °F 67% 29.93 in 10.0 mi West 4.6 mph - N/A   Scattered Clouds
2:30 AM 53.6 °F 44.6 °F 72% 29.93 in 10.0 mi West 4.6 mph - N/A   Mostly Cloudy
2:48 AM 53.6 °F 42.8 °F 67% 29.91 in 10.0 mi Calm Calm - N/A   Mostly Cloudy
3:09 AM 53.6 °F 44.6 °F 72% 29.92 in 10.0 mi Calm Calm - N/A   Mostly Cloudy
3:30 AM 53.6 °F 44.6 °F 72% 29.93 in 10.0 mi SSW 3.5 mph - N/A   Scattered Clouds
3:48 AM 53.6 °F 44.6 °F 72% 29.92 in 10.0 mi SSE 5.8 mph - N/A   Scattered Clouds
7:45 AM 55.4 °F 48.2 °F 77% 29.97 in 10.0 mi Calm Calm - N/A   Mostly Cloudy
8:45 AM 60.8 °F 51.8 °F 72% 29.98 in 10.0 mi Calm Calm - N/A   Scattered Clouds
10:45 AM 68.0 °F 46.4 °F 46% 29.98 in 10.0 mi Calm Calm - N/A   Clear
11:45 AM 69.8 °F 50.0 °F 49% 29.97 in 10.0 mi SE 6.9 mph - N/A   Partly Cloudy
12:45 PM 69.8 °F 48.2 °F 46% 29.96 in 10.0 mi ESE 11.5 mph - N/A   Partly Cloudy
1:45 PM 69.8 °F 51.8 °F 53% 29.95 in 10.0 mi ESE 10.4 mph - N/A   Partly Cloudy
2:45 PM 71.6 °F 51.8 °F 50% 29.94 in 10.0 mi SE 9.2 mph - N/A   Partly Cloudy
3:55 PM 71.6 °F 50.0 °F 46% 29.93 in 10.0 mi SSE 10.4 mph - N/A   Partly Cloudy
4:55 PM 71.6 °F 51.8 °F 50% 29.94 in 10.0 mi SE 8.1 mph - N/A   Partly Cloudy
5:55 PM 71.6 °F 51.8 °F 50% 29.96 in 10.0 mi ESE 8.1 mph - N/A   Partly Cloudy
6:45 PM 71.6 °F 53.6 °F 53% 29.97 in 10.0 mi ESE 4.6 mph - N/A   Partly Cloudy
7:55 PM 66.2 °F 48.2 °F 52% 29.99 in 10.0 mi Calm Calm - N/A   Partly Cloudy
8:55 PM 59.0 °F 46.4 °F 63% 30.01 in 10.0 mi Calm Calm - N/A   Scattered Clouds
9:45 PM 57.2 °F 46.4 °F 67% 30.03 in 10.0 mi Calm Calm - N/A   Scattered Clouds
10:12 PM 55.4 °F 46.4 °F 72% 30.04 in 10.0 mi Calm Calm - N/A   Clear
10:30 PM 55.4 °F 46.4 °F 72% 30.05 in 10.0 mi Calm Calm - N/A   Clear
10:51 PM 53.6 °F 46.4 °F 77% 30.05 in 10.0 mi Calm Calm - N/A   Clear
11:12 PM 53.6 °F 46.4 °F 77% 30.05 in 10.0 mi Calm Calm - N/A   Clear
11:30 PM 53.6 °F 46.4 °F 77% 30.06 in 10.0 mi Calm Calm - N/A   Clear
11:51 PM 51.8 °F 46.4 °F 82% 30.07 in 10.0 mi Calm Calm - N/A   Clear